Weather History for Krasnodar, Russia

Change the Weather History Date:

Wednesday, February 20, 2013

  Actual Average Record
Temperature  
Mean Temperature 40 °F -  
Max Temperature 48 °F - - ()
Min Temperature 33 °F - - ()
Degree Days  
Heating Degree Days 24    
Moisture  
Dew Point 35 °F    
Average Humidity 82    
Maximum Humidity 100    
Minimum Humidity 62    
Precipitation  
Precipitation 0.00 in 0.06 in - ()
Sea Level Pressure  
Sea Level Pressure 30.03 in    
Wind  
Wind Speed 6 mph ()    
Max Wind Speed 18 mph    
Max Gust Speed 25 mph    
Visibility 1.9 miles    
Events      
T = Trace of Precipitation, MM = Missing Value Source: Averaged Metar Reports

Daily Weather History Graph

Daily Weather History Graph

Search for Another Location

Airport:

Trip Planner

Search our weather history database for the weather conditions in past years. The results will help you decide how hot, cold, wet, or windy it might be!

Date:

Astronomy

Feb. 20, 2013 Rise Set
Actual Time 8:16 AM MSK 6:58 PM MSK
Civil Twilight 7:46 AM MSK 7:28 PM MSK
Nautical Twilight 7:12 AM MSK 8:02 PM MSK
Astronomical Twilight 6:38 AM MSK 8:36 PM MSK
Moon 1:53 PM MSK 4:28 AM MSK
Length of Visible Light 11h 41m
Length of Day
10h 41m
Waxing Gibbous, 73% of the Moon is Illuminated
Feb 20
Waxing Gibbous
Feb 26
Full
Mar 5
Last Quarter
Mar 11
New
Mar 19
First Quarter

Hourly Weather History & Observations

Time (MSK) Temp. Windchill Dew Point Humidity Pressure Visibility Wind Dir Wind Speed Gust Speed Precip Events Conditions
12:00 AM 35.6 °F 31.8 °F 35.6 °F 100% 30.09 in - East 4.5 mph - N/A   Mostly Cloudy
12:30 AM 35.6 °F 31.8 °F 35.6 °F 100% 30.09 in 2.8 mi East 4.5 mph - N/A   Mostly Cloudy
1:00 AM 35.6 °F 31.8 °F 33.8 °F 93% 30.09 in 3.1 mi East 4.5 mph - N/A   Mostly Cloudy
1:30 AM 35.6 °F - 33.8 °F 93% 30.09 in - Variable 2.2 mph - N/A   Mostly Cloudy
2:00 AM 33.8 °F - 33.8 °F 100% 30.09 in 1.0 mi Variable 2.2 mph - N/A   Mostly Cloudy
2:30 AM 35.6 °F 31.8 °F 33.8 °F 93% 30.09 in 1.0 mi NE 4.5 mph - N/A   Mostly Cloudy
3:00 AM 35.6 °F - 35.6 °F 100% 30.09 in 1.3 mi Variable 2.2 mph - N/A   Mostly Cloudy
4:30 AM 35.6 °F 31.8 °F 33.8 °F 93% 30.06 in 1.9 mi NNE 4.5 mph - N/A   Mostly Cloudy
5:00 AM 33.8 °F 29.7 °F 33.8 °F 100% 30.06 in 1.2 mi NE 4.5 mph - N/A   Mostly Cloudy
5:30 AM 33.8 °F 29.7 °F 33.8 °F 100% 30.06 in 1.3 mi NE 4.5 mph - N/A   Mostly Cloudy
6:00 AM 35.6 °F 31.8 °F 33.8 °F 93% 30.06 in 1.3 mi NNE 4.5 mph - N/A   Mostly Cloudy
6:30 AM 33.8 °F 29.7 °F 33.8 °F 100% 30.06 in 1.3 mi NE 4.5 mph - N/A   Mostly Cloudy
7:00 AM 33.8 °F 29.7 °F 33.8 °F 100% 30.06 in 1.4 mi NE 4.5 mph - N/A   Mostly Cloudy
7:30 AM 33.8 °F 27.9 °F 33.8 °F 100% 30.06 in 1.6 mi ENE 6.7 mph - N/A   Mostly Cloudy
8:00 AM 33.8 °F 29.7 °F 33.8 °F 100% 30.06 in 1.8 mi East 4.5 mph - N/A   Mostly Cloudy
8:30 AM 33.8 °F 29.7 °F 33.8 °F 100% 30.06 in 1.5 mi ENE 4.5 mph - N/A   Mostly Cloudy
9:00 AM 33.8 °F 29.7 °F 33.8 °F 100% 30.06 in 1.4 mi ENE 4.5 mph - N/A   Mostly Cloudy
9:30 AM 35.6 °F 30.0 °F 33.8 °F 93% 30.06 in - ENE 6.7 mph - N/A   Mostly Cloudy
10:00 AM 37.4 °F 32.2 °F 35.6 °F 93% 30.06 in 3.7 mi East 6.7 mph - N/A   Mostly Cloudy
10:30 AM 39.2 °F 33.1 °F 35.6 °F 87% 30.06 in 4.3 mi ESE 8.9 mph - N/A   Mostly Cloudy
11:00 AM 39.2 °F 33.1 °F 35.6 °F 87% 30.04 in - East 8.9 mph - N/A   Clear
11:30 AM 41.0 °F 36.5 °F 35.6 °F 81% 30.04 in - East 6.7 mph - N/A   Clear
12:00 PM 41.0 °F 35.4 °F 35.6 °F 81% 30.04 in - East 8.9 mph - N/A   Clear
12:30 PM 42.8 °F 37.6 °F 35.6 °F 76% 30.01 in - East 8.9 mph - N/A   Clear
1:00 PM 44.6 °F 40.8 °F 35.6 °F 71% 30.01 in - East 6.7 mph - N/A   Clear
1:30 PM 46.4 °F 42.0 °F 37.4 °F 71% 30.01 in - ESE 8.9 mph - N/A   Clear
2:00 PM 46.4 °F 42.0 °F 35.6 °F 66% 29.98 in - East 8.9 mph - N/A   Clear
2:30 PM 46.4 °F 41.2 °F 35.6 °F 66% 29.98 in - East 11.2 mph - N/A   Clear
3:00 PM 48.2 °F - 35.6 °F 62% 29.98 in - East 11.2 mph - N/A   Clear
3:30 PM 48.2 °F - 35.6 °F 62% 29.98 in - East 11.2 mph - N/A   Clear
4:00 PM 48.2 °F - 35.6 °F 62% 29.98 in - East 11.2 mph - N/A   Clear
4:30 PM 48.2 °F - 35.6 °F 62% 29.98 in - East 11.2 mph - N/A   Clear
5:00 PM 46.4 °F 40.5 °F 37.4 °F 71% 29.98 in - East 13.4 mph - N/A   Clear
5:30 PM 46.4 °F 41.2 °F 35.6 °F 66% 29.98 in - East 11.2 mph - N/A   Clear
6:00 PM 46.4 °F 41.2 °F 35.6 °F 66% 29.98 in - East 11.2 mph - N/A   Clear
6:30 PM 44.6 °F 38.9 °F 33.8 °F 66% 29.98 in - East 11.2 mph 17.9 mph N/A   Clear
7:00 PM 44.6 °F 38.9 °F 35.6 °F 71% 29.98 in - East 11.2 mph 17.9 mph N/A   Clear
7:30 PM 44.6 °F 39.8 °F 35.6 °F 71% 29.98 in - East 8.9 mph - N/A   Clear
8:00 PM 44.6 °F 39.8 °F 35.6 °F 71% 29.98 in - East 8.9 mph - N/A   Clear
8:30 PM 44.6 °F 39.8 °F 35.6 °F 71% 29.98 in - East 8.9 mph - N/A   Clear
9:00 PM 42.8 °F 35.9 °F 33.8 °F 70% 29.98 in - East 13.4 mph 20.1 mph N/A   Clear
9:30 PM 42.8 °F 34.7 °F 33.8 °F 70% 29.98 in - East 17.9 mph 24.6 mph N/A   Clear
10:00 PM 42.8 °F 35.9 °F 33.8 °F 70% 29.98 in - ENE 13.4 mph 20.1 mph N/A   Clear
10:30 PM 41.0 °F 32.9 °F 33.8 °F 76% 29.98 in - East 15.7 mph 22.4 mph N/A   Clear
11:00 PM 41.0 °F 33.6 °F 33.8 °F 76% 30.01 in - East 13.4 mph - N/A   Clear
11:30 PM 41.0 °F 34.4 °F 33.8 °F 76% 30.01 in - ENE 11.2 mph - N/A   Clear